Theta_e
335 335 334 333 332 331 330 329 329 329 330 331 331 331 332 331 332 332 332 333 334 336 336 335 333 331 332 332 332 332 330 330 330 330 329 328 329 329 327 327 326 326 326 327 327 328 329 329 328 328 327 324 318 313 311 310 311 314 314 313 313 313 315 316 316 316 316 318 319 318 318 319 320 319 319 318 318 318 319 320 319 319 319 319 318
336 335 334 333 332 330 332 332 330 330 330 330 330 331 331 331 332 333 333 333 334 336 336 334 333 331 332 332 332 332 331 331 331 330 329 328 329 329 329 328 327 326 325 328 328 328 329 330 330 329 329 327 325 320 313 309 308 310 311 311 312 312 313 315 317 318 317 318 317 317 318 319 319 318 318 318 318 318 319 319 319 319 318 317 318
335 334 333 332 331 332 333 333 331 331 332 331 330 330 330 331 331 332 332 332 333 336 335 333 332 331 330 331 332 332 331 331 330 329 328 328 329 328 328 328 328 327 326 327 328 328 330 331 331 331 330 329 328 327 322 317 314 313 315 317 318 318 316 315 316 316 316 316 315 315 316 317 318 318 318 318 318 318 318 318 318 319 319 318 318
335 334 333 332 332 334 334 334 333 332 332 332 332 330 329 331 331 331 332 331 333 335 334 333 332 331 330 330 331 332 332 331 330 329 328 329 328 327 326 325 326 327 327 328 329 329 330 331 331 331 331 330 329 329 327 324 322 322 322 323 324 323 320 317 315 314 313 314 314 313 312 313 314 315 316 317 318 318 317 317 318 318 318 319 318
335 334 333 333 333 334 334 334 333 332 332 332 333 332 330 331 331 332 332 332 333 334 333 332 331 330 330 330 330 332 333 332 330 328 329 329 327 326 325 326 327 327 327 328 329 330 331 331 331 331 331 331 331 330 330 328 326 326 326 326 326 325 323 319 316 313 312 311 311 312 312 311 311 311 312 314 315 316 317 317 318 318 318 318 319
334 333 333 333 333 334 334 333 333 333 333 333 333 333 332 332 332 332 332 332 333 333 332 331 331 330 330 329 330 332 333 332 329 328 328 328 326 324 325 327 329 329 329 329 330 330 330 330 331 331 331 331 331 331 331 330 328 327 327 327 326 326 325 322 317 312 311 310 310 312 314 315 315 314 310 309 310 312 314 316 317 318 318 318 318
334 334 334 333 333 333 333 332 333 334 334 334 334 333 334 333 333 332 332 332 332 331 331 331 330 330 330 330 331 332 333 331 329 328 327 327 325 324 325 327 329 329 329 329 329 329 329 330 330 330 330 331 331 331 331 331 330 328 327 327 327 327 326 325 321 317 316 316 316 317 319 319 319 317 314 312 312 312 312 312 315 317 318 318 318
334 334 334 333 333 333 333 333 334 335 334 333 334 333 334 333 333 333 332 332 332 330 330 330 330 330 330 331 332 332 333 332 330 329 326 325 326 326 326 327 328 328 329 329 328 328 328 328 328 328 329 330 330 330 330 330 330 329 328 327 327 327 327 327 324 322 322 323 323 323 323 323 322 321 320 321 321 320 318 315 313 314 316 317 317
334 334 334 333 333 332 332 331 332 335 335 334 334 334 333 333 333 333 332 332 331 330 330 330 330 330 330 331 332 332 332 332 332 330 327 325 326 326 327 327 328 328 328 328 327 326 325 325 325 326 327 328 329 330 330 330 330 330 329 329 328 328 327 328 327 325 324 324 324 324 324 324 324 324 323 323 323 323 323 321 318 315 314 314 316
335 334 333 332 332 332 329 328 330 334 334 334 334 334 334 333 332 332 332 331 331 330 329 330 329 329 330 332 332 332 333 332 332 331 329 327 327 328 328 328 328 328 327 327 326 324 322 321 321 321 322 323 326 329 329 330 330 330 330 329 329 329 328 328 328 326 325 325 325 325 325 325 325 325 324 324 323 324 323 323 322 320 316 315 316
334 332 332 332 331 329 327 327 330 333 334 334 333 334 333 332 332 331 331 331 331 330 329 329 329 329 331 332 332 332 332 332 332 331 330 329 328 329 330 329 329 328 327 326 323 322 321 321 321 320 320 320 323 327 329 330 330 330 329 329 329 329 328 328 328 327 326 326 326 325 325 326 326 326 326 325 324 324 324 323 323 322 321 319 318
333 331 330 330 329 327 325 328 333 333 332 333 333 334 333 332 332 331 331 331 331 330 329 329 329 329 331 332 332 332 332 332 331 331 330 330 329 330 330 329 329 327 326 325 323 323 324 324 324 323 323 324 325 328 328 329 329 329 329 329 329 328 329 329 328 328 327 327 326 326 326 326 326 326 327 326 325 325 325 324 323 322 322 321 320
333 331 329 330 330 328 328 331 333 332 331 332 333 334 333 332 332 331 331 331 330 330 330 329 329 330 330 331 330 330 331 332 331 331 330 330 330 330 330 329 329 327 327 326 325 325 326 326 325 325 326 327 327 328 328 328 329 329 328 328 328 328 328 328 328 328 328 327 326 326 326 326 326 326 327 326 325 325 324 324 323 322 322 321 321
334 332 330 331 329 328 331 333 332 332 331 332 333 333 332 332 332 331 330 330 330 330 330 330 330 330 330 330 329 328 329 330 330 330 330 330 330 330 329 329 329 328 328 328 327 327 327 328 327 326 326 327 327 327 328 328 328 328 328 327 327 328 328 328 328 327 327 327 326 326 326 326 326 326 325 325 324 324 323 324 323 323 322 321 322
333 332 329 331 331 330 333 333 332 332 332 332 333 332 332 332 332 332 330 330 330 330 330 330 330 330 330 330 330 329 329 329 329 329 329 330 331 331 330 330 330 330 330 329 327 327 328 328 327 326 326 327 326 326 326 327 327 327 327 327 327 327 327 327 327 327 327 327 326 326 325 323 322 321 320 319 319 320 320 321 321 322 322 322 322
332 331 329 330 332 332 332 332 332 332 332 333 333 332 332 331 331 332 331 330 330 330 331 331 330 330 329 329 329 329 330 329 328 329 329 329 330 330 330 330 330 330 330 329 327 327 327 327 326 326 326 326 326 326 326 326 326 326 325 325 326 326 326 326 326 327 326 326 325 323 320 317 313 311 309 309 313 318 320 321 321 321 322 323 322
329 329 330 330 331 332 331 332 332 332 332 333 333 333 332 332 332 332 331 330 330 330 331 331 330 330 329 329 329 330 331 329 328 329 329 329 329 328 328 329 329 329 330 329 329 328 327 327 325 325 326 325 325 325 325 324 324 323 322 323 324 324 324 325 324 324 323 323 321 318 314 309 306 304 303 306 314 320 321 322 323 322 322 322 322
327 327 329 330 331 331 332 332 332 332 331 332 333 333 332 332 332 332 332 331 330 330 331 331 330 329 329 329 329 330 329 328 329 330 328 328 329 328 327 328 329 329 329 329 328 328 327 326 324 324 325 324 325 324 324 323 321 319 319 319 321 322 323 323 322 319 317 316 314 311 307 304 302 302 302 304 311 316 319 321 322 321 321 321 320
327 328 331 332 332 332 332 333 333 331 330 332 333 332 332 332 332 332 332 331 331 330 331 331 330 330 330 328 329 329 328 328 329 329 329 328 327 327 327 328 328 328 329 328 327 327 327 326 324 324 324 324 324 323 322 320 318 316 315 316 318 320 321 322 321 316 312 309 306 304 303 302 302 303 302 302 304 308 314 318 320 320 319 318 315
329 331 332 333 333 332 332 333 333 331 330 331 333 332 332 332 332 333 333 332 331 330 331 332 330 330 331 330 330 329 328 328 328 327 329 329 327 327 327 328 328 327 327 327 327 327 327 325 325 324 324 323 322 321 318 315 312 311 311 311 313 315 318 318 316 312 308 305 303 302 303 303 302 302 301 301 301 302 305 309 311 311 310 308 305
331 332 333 333 333 331 331 332 332 330 329 331 333 332 331 331 332 332 332 332 331 331 331 331 330 330 331 331 330 329 328 328 328 326 327 328 329 327 324 324 325 326 327 327 327 326 326 325 325 324 324 323 321 318 313 308 306 306 307 308 309 311 312 311 308 306 305 303 303 303 302 301 301 300 300 300 300 300 300 301 301 301 301 300 299
331 332 333 333 332 332 332 332 331 330 330 331 333 332 331 330 331 332 332 332 331 331 331 331 330 330 331 331 330 328 327 327 327 326 326 326 328 326 321 321 323 324 326 327 326 325 325 325 324 323 323 322 319 314 308 304 303 304 305 306 307 307 306 305 305 304 303 303 302 302 301 300 299 299 299 299 299 299 299 299 298 298 298 298 298
331 332 332 332 333 333 332 331 331 331 331 332 332 332 331 330 330 331 331 332 332 331 331 330 330 330 330 330 329 328 327 327 326 326 326 324 324 322 319 320 322 323 325 326 325 325 324 323 322 321 320 319 315 310 304 303 303 303 304 305 305 305 304 304 304 303 302 301 301 301 301 300 299 299 299 299 300 299 300 299 298 298 298 298 298
331 332 333 333 333 332 332 331 331 332 332 332 332 332 331 330 330 331 331 331 332 332 331 331 331 330 330 329 329 328 328 328 327 326 326 323 322 320 318 320 321 321 324 325 324 325 324 323 322 321 319 316 311 306 303 303 304 304 304 304 304 304 303 303 302 301 301 301 301 301 301 300 299 299 299 300 300 300 300 300 300 301 302 302 301
332 332 333 333 333 332 332 332 332 332 332 332 331 331 331 330 330 331 331 330 331 332 331 331 331 330 330 329 329 328 328 328 327 327 326 322 320 318 318 320 319 319 321 322 323 324 324 323 322 321 319 314 308 304 303 305 305 304 304 303 303 302 302 302 301 300 300 300 300 300 300 300 300 300 300 300 300 300 300 300 300 301 302 302 302
332 333 333 333 332 332 332 332 332 331 331 331 331 331 331 330 329 330 331 331 331 332 331 331 331 330 329 329 329 328 328 328 327 327 326 322 319 318 318 319 318 317 317 318 320 322 321 322 323 320 317 313 308 304 304 306 305 304 302 301 301 300 300 300 300 300 300 300 301 302 302 302 302 302 303 303 303 303 303 302 301 301 300 300 300
332 333 334 333 332 333 333 332 332 331 331 331 330 330 330 330 329 330 331 332 332 331 331 330 330 330 330 328 328 328 328 328 327 327 326 323 320 319 319 319 318 317 315 315 318 320 321 321 321 320 315 312 309 304 305 306 305 302 301 300 300 300 300 300 300 301 302 303 304 304 305 305 306 306 307 307 307 306 306 305 304 303 303 302 301
333 333 332 332 332 333 333 332 332 331 331 330 330 330 330 330 330 330 331 332 332 331 331 331 330 330 329 329 328 328 328 328 328 327 327 325 322 319 319 318 318 317 316 316 314 314 318 320 319 318 315 312 308 304 305 306 304 301 300 300 300 300 300 301 302 303 304 305 306 307 308 308 308 308 308 309 308 308 308 307 307 306 306 306 305
333 333 332 332 333 333 332 332 332 331 331 331 330 330 330 330 330 330 331 332 332 332 331 332 331 330 329 329 327 328 328 327 327 327 327 326 324 321 319 318 317 317 318 319 314 310 314 317 316 316 314 311 307 304 305 306 303 301 300 300 301 301 302 303 304 306 307 308 308 308 309 309 309 309 309 309 309 308 308 308 308 308 308 308 307
333 333 332 332 333 332 332 332 332 332 332 331 330 330 330 331 330 331 332 332 332 331 331 331 331 330 330 329 328 327 327 327 327 327 326 326 325 323 321 318 317 316 316 318 316 311 312 313 312 314 312 309 306 304 306 306 304 302 301 301 302 303 304 305 306 308 308 309 309 309 309 309 309 309 309 309 309 309 309 309 309 308 308 308 308
332 332 331 332 333 332 332 332 332 332 332 331 330 330 330 331 331 331 332 332 331 331 330 330 330 331 330 329 327 327 327 327 326 326 326 326 325 323 321 318 316 315 314 315 313 311 312 313 311 311 311 308 305 304 306 306 304 302 301 301 303 304 306 307 308 308 309 309 309 309 309 309 309 309 309 309 309 309 309 309 309 309 308 308 308
331 331 331 331 332 332 332 332 332 332 331 331 330 330 330 330 331 331 331 331 331 330 330 329 329 331 330 329 328 327 327 327 326 326 326 325 325 325 322 317 314 314 314 313 311 309 311 313 312 311 310 308 307 306 306 306 304 303 302 301 303 305 307 308 308 309 309 309 309 309 309 309 309 309 309 309 309 309 309 309 308 308 308 308 308
331 331 330 330 330 330 331 331 331 331 330 331 330 330 330 330 329 329 329 330 331 329 329 329 329 330 330 329 328 328 328 328 327 326 325 325 326 325 324 321 316 313 312 312 310 309 309 311 311 311 309 308 308 307 306 306 305 303 302 302 302 304 306 307 308 309 309 309 309 309 309 309 309 309 309 309 309 309 308 308 308 308 308 308 307
330 329 328 329 330 330 330 330 329 329 329 329 330 329 329 329 329 329 329 329 330 329 328 328 329 329 329 329 329 328 329 328 327 326 326 326 326 326 325 325 321 316 315 313 310 309 310 310 310 310 309 309 309 309 307 306 306 305 304 303 303 303 305 306 307 308 308 308 308 309 309 309 309 309 309 309 308 308 308 308 308 307 307 307 307
328 328 327 328 329 329 329 329 328 328 328 328 328 328 328 329 329 329 329 329 329 329 328 327 328 329 329 329 329 330 329 329 328 327 327 327 327 326 325 325 323 321 320 317 312 310 310 310 310 310 309 309 310 311 309 307 306 306 306 306 305 304 304 305 306 306 307 307 308 308 308 308 308 308 309 309 308 308 308 308 308 307 307 307 307
327 326 327 327 328 328 328 329 328 328 328 328 327 328 328 328 329 329 329 329 329 329 328 328 328 328 329 329 329 330 330 329 329 329 329 328 327 326 325 325 324 322 323 319 313 310 311 310 311 311 310 310 311 311 310 308 306 307 307 307 307 306 305 305 306 307 307 307 307 308 308 308 308 308 308 308 308 309 309 308 308 308 307 307 306
326 326 326 326 327 328 328 329 328 328 328 328 328 328 327 328 328 328 328 328 329 329 328 328 328 328 329 329 329 329 330 330 329 329 329 328 326 325 325 325 324 322 323 319 312 310 311 311 311 311 310 311 311 311 311 309 307 306 307 307 307 307 307 307 308 309 309 308 308 308 308 308 308 308 308 308 308 308 309 309 309 308 308 307 307
326 325 325 325 326 327 327 328 328 328 327 327 327 327 327 328 328 328 328 328 328 328 328 328 329 329 329 329 329 329 330 330 329 329 328 326 326 325 325 324 323 322 323 319 312 310 311 310 311 311 311 311 311 310 311 310 308 307 306 306 307 308 309 309 310 310 310 310 310 309 309 309 309 309 309 308 308 308 308 308 308 308 308 308 307
325 324 323 324 325 325 326 328 328 327 327 327 327 327 327 327 327 327 327 326 326 327 328 328 329 329 329 329 329 329 330 329 329 328 326 325 325 325 324 323 323 322 322 318 312 310 311 310 310 311 311 311 311 311 311 310 308 307 307 306 307 308 309 310 310 311 311 311 311 311 311 311 311 310 310 309 309 308 308 308 308 308 308 308 308
324 322 323 324 324 325 326 327 327 326 326 326 326 326 326 327 327 327 326 326 325 326 327 327 328 329 329 329 330 330 330 329 328 327 326 325 325 325 323 322 321 321 320 316 312 311 311 311 311 312 311 311 311 311 310 309 307 307 308 307 308 310 310 311 311 311 311 311 311 311 311 311 311 311 311 311 310 310 309 309 309 308 308 308 308
321 322 323 323 323 324 326 326 325 325 324 324 324 324 325 325 325 325 325 325 325 325 326 326 327 328 328 328 330 329 329 328 327 326 326 323 323 323 322 321 320 319 318 315 313 312 312 312 311 311 311 311 311 311 310 309 309 310 310 309 308 310 310 310 311 311 311 311 311 311 311 311 311 311 311 311 311 311 310 310 310 310 309 309 309
321 322 323 323 323 324 325 324 323 323 323 322 322 322 323 323 323 323 323 323 324 324 324 325 327 328 328 328 329 328 328 328 327 326 325 322 321 321 320 319 318 316 316 315 314 313 314 313 313 312 311 311 311 311 310 310 310 311 310 309 309 310 310 309 310 311 311 310 310 310 311 312 311 311 311 312 312 312 311 311 311 311 310 310 310
321 322 322 323 324 324 323 323 322 321 322 322 322 322 322 321 321 321 321 322 323 323 323 324 325 327 327 326 327 326 326 325 325 325 324 322 321 320 320 319 318 316 316 316 315 315 316 316 316 315 314 314 313 313 312 312 313 312 311 310 310 309 309 308 309 311 312 311 310 310 311 312 312 311 312 312 312 312 312 312 312 311 311 311 310
320 320 320 321 321 321 321 321 321 321 321 321 321 321 321 322 321 321 321 321 322 322 323 323 324 325 325 324 325 324 322 320 320 320 321 320 320 319 318 318 317 317 317 317 317 317 317 318 318 316 316 316 317 318 317 316 316 316 315 314 313 312 312 311 311 312 313 314 313 312 313 314 313 312 313 313 314 313 313 313 312 312 312 312 311
318 318 318 318 318 318 319 319 319 319 320 319 320 320 320 321 321 321 321 320 321 321 322 322 323 323 322 322 321 319 316 315 315 315 316 316 316 315 315 315 315 315 315 315 315 314 314 314 314 313 314 314 315 317 317 316 317 318 318 318 318 318 317 316 316 316 317 318 317 314 313 314 314 313 313 314 314 314 314 314 314 313 312 312 312
316 316 316 316 316 316 317 318 317 318 318 318 318 319 320 320 320 321 320 320 320 321 321 321 321 320 319 318 317 315 314 314 315 316 316 317 317 316 317 317 317 317 316 316 316 316 316 316 315 315 316 316 317 317 318 318 318 319 319 319 319 319 319 318 318 318 318 318 318 316 313 315 316 314 314 316 316 315 315 315 315 314 314 313 313
314 314 314 314 314 314 314 315 315 315 316 316 316 319 320 320 320 320 320 320 320 319 318 319 318 317 317 317 317 317 317 318 319 319 320 320 320 320 320 320 320 319 319 318 318 318 318 317 317 317 318 318 318 319 319 319 319 319 318 318 319 318 318 318 318 318 318 318 319 317 315 316 318 317 316 318 318 318 317 317 316 316 316 315 312
311 312 311 311 312 311 311 312 313 313 313 313 315 318 321 320 320 320 320 320 319 317 317 317 317 316 316 317 317 318 318 319 319 319 319 319 319 319 319 320 320 320 319 319 318 318 318 318 317 317 317 317 317 318 317 317 317 316 316 316 316 315 314 314 314 315 316 316 317 317 316 317 318 318 318 318 318 318 318 318 317 317 316 315 312
307 307 307 307 307 308 309 311 312 312 313 313 315 319 321 321 321 321 321 319 318 317 316 316 316 315 315 316 317 317 317 317 316 317 317 317 317 316 315 315 315 315 314 313 312 312 312 312 312 311 311 311 311 311 311 309 308 307 308 309 310 309 309 312 313 313 313 313 314 315 316 317 317 317 318 318 318 318 318 318 318 317 317 316 315
303 303 304 304 304 305 306 308 309 311 312 313 315 319 321 321 321 321 321 320 318 317 315 314 314 314 314 313 314 315 315 313 313 313 314 314 314 312 310 309 308 307 307 306 306 305 304 304 304 303 303 303 303 304 303 303 302 301 301 302 302 303 306 310 312 312 312 312 313 314 316 316 317 317 317 317 317 317 317 317 317 317 316 316 315
302 302 302 302 302 302 302 303 305 307 308 309 313 317 320 321 321 321 321 320 317 314 313 311 311 311 311 310 310 311 310 309 308 308 309 309 308 306 305 304 302 301 300 301 302 302 302 302 301 301 301 301 302 302 302 303 303 302 302 302 303 304 305 308 309 310 311 311 312 313 314 315 315 315 316 316 316 315 315 315 315 315 315 315 314
Wind_Speed
19 17 17 16 14 13 11 11 14 15 14 15 15 15 14 13 13 13 11 8 6 5 4 4 5 7 11 13 12 12 13 14 13 13 13 13 13 13 12 12 13 13 13 14 13 12 11 11 11 10 11 13 13 12 10 10 10 10 10 10 10 10 9 9 9 10 10 11 11 11 12 13 13 12 13 14 14 16 16 15 15 16 16 16 17
20 19 19 17 16 15 13 12 14 14 14 14 14 14 13 13 13 12 9 7 6 7 7 6 6 8 12 12 11 11 12 13 12 12 12 13 13 13 12 12 12 13 14 15 13 12 11 9 9 10 10 11 13 13 12 11 11 11 11 11 12 12 11 10 9 9 9 10 10 11 12 12 12 12 13 13 14 15 15 15 15 15 16 16 17
22 21 20 19 18 17 15 13 14 14 13 12 12 13 13 12 12 11 9 8 9 10 9 8 8 9 11 12 12 11 12 13 12 11 11 12 13 13 12 12 12 13 14 14 12 11 9 8 7 7 7 8 10 11 12 12 12 12 12 13 14 14 13 11 10 9 9 9 9 10 10 11 12 12 12 13 13 13 14 14 14 15 15 16 17
22 22 21 20 19 18 15 13 13 13 12 10 9 11 12 11 10 10 9 11 12 12 10 10 10 10 11 13 13 13 13 13 12 11 11 12 13 13 12 12 13 14 15 14 12 9 8 7 6 5 5 5 6 7 9 11 11 12 13 13 14 14 13 12 11 10 10 9 9 9 10 11 11 11 12 12 12 13 13 14 14 15 15 15 16
23 22 20 20 19 18 15 14 13 12 12 10 8 10 12 10 10 10 11 13 14 14 12 11 12 11 11 12 14 15 14 12 12 12 12 12 13 13 13 13 14 15 15 14 11 8 7 5 5 4 4 4 5 5 6 8 9 10 10 10 11 12 13 13 12 11 10 9 9 9 10 11 11 12 12 12 12 13 13 13 13 13 14 15 15
23 22 21 20 19 17 16 15 14 11 11 11 9 11 13 11 12 12 12 15 16 15 15 14 13 11 11 12 14 15 14 12 13 13 13 13 13 13 13 13 13 13 13 11 9 7 5 5 5 4 4 3 3 4 5 6 7 7 7 8 8 9 10 12 12 12 12 11 11 11 10 11 11 12 13 13 13 13 12 12 12 12 13 14 15
24 23 22 20 19 18 17 17 15 12 12 13 11 13 14 13 13 14 15 16 17 17 16 15 14 12 12 12 15 16 15 14 14 13 13 14 13 12 12 10 10 10 10 9 7 6 5 5 5 4 4 3 2 3 4 5 6 6 6 6 7 8 8 10 12 13 14 14 13 13 12 12 12 13 15 15 15 14 13 11 11 11 12 12 13
24 23 23 22 20 19 17 16 14 12 12 12 11 12 14 13 13 13 16 17 17 16 15 15 14 14 14 15 16 17 16 16 16 14 13 13 13 12 10 9 7 8 8 7 6 6 5 4 4 4 4 3 3 2 3 4 6 6 6 5 6 7 7 8 10 12 13 14 13 13 12 11 12 13 15 16 16 16 15 13 11 11 11 11 12
25 24 24 24 22 20 17 15 14 12 12 13 12 12 13 15 16 14 15 17 17 17 16 16 16 16 16 16 17 17 17 17 16 14 13 13 13 11 9 8 7 7 7 7 6 6 6 5 4 4 4 3 4 3 3 4 5 6 6 6 5 6 7 7 8 10 10 11 11 11 11 10 10 10 11 13 14 15 15 14 13 11 11 11 11
26 25 24 25 23 20 18 16 15 13 12 12 12 12 12 15 18 15 13 15 17 18 18 18 18 17 17 17 16 17 17 16 15 14 13 13 12 11 9 8 8 8 8 7 6 6 6 5 4 4 4 3 3 4 4 4 4 5 5 6 6 6 6 6 7 8 9 9 9 8 8 8 7 6 7 9 11 12 12 12 11 12 12 12 11
26 24 22 22 20 18 18 17 15 14 13 11 10 12 12 13 15 15 14 13 15 18 19 19 18 18 17 16 15 16 16 14 13 13 13 13 13 11 10 9 9 9 9 8 8 7 7 6 5 5 5 5 4 4 4 4 4 4 5 5 5 6 5 6 7 7 8 8 7 6 6 5 5 4 4 7 7 7 8 9 9 10 12 13 12
24 22 19 17 17 17 18 17 16 15 14 12 11 11 12 13 13 16 18 15 15 17 20 21 20 17 16 15 14 13 13 13 12 14 16 17 15 12 11 10 10 11 11 10 9 8 8 7 7 6 6 6 5 5 5 6 6 6 6 6 5 5 5 6 6 7 8 8 6 5 4 4 3 2 2 4 4 4 5 6 7 8 10 12 12
22 20 19 17 17 17 16 17 16 16 15 13 12 12 12 13 14 17 19 19 18 18 21 23 21 16 12 11 12 12 12 13 13 16 19 19 16 14 12 12 12 12 12 11 9 9 8 7 7 7 7 7 7 8 9 10 10 9 9 8 7 7 6 7 7 7 8 8 7 5 4 4 5 5 5 5 3 4 5 5 6 7 7 9 12
22 20 19 18 17 16 16 17 17 16 14 13 14 14 14 15 16 17 19 20 21 21 24 23 18 15 13 9 7 7 9 11 12 13 14 15 15 14 13 13 13 13 13 11 10 10 8 6 6 7 8 8 10 11 13 13 13 12 12 11 10 9 9 9 10 10 9 9 8 7 7 7 8 9 8 7 7 7 7 6 6 7 8 8 10
22 20 19 17 17 17 16 17 17 16 16 15 15 16 15 17 17 17 19 20 20 24 26 21 18 17 13 7 3 4 5 6 8 10 11 11 13 14 14 14 13 12 12 11 12 11 7 5 6 8 9 10 12 13 14 14 15 14 14 13 12 12 12 12 12 13 13 12 11 11 11 11 10 10 9 9 9 9 9 8 7 8 8 9 9
21 20 19 18 17 17 17 17 16 16 16 15 15 17 16 17 20 20 22 22 20 24 24 18 21 21 10 3 3 3 2 4 7 8 10 12 12 13 14 13 13 12 12 11 12 12 9 5 6 9 10 11 12 13 14 14 15 14 14 14 14 14 14 14 14 14 14 14 13 13 12 11 10 10 9 9 11 12 12 11 11 11 11 12 11
21 19 19 18 18 17 17 16 15 14 14 14 16 17 16 18 21 22 25 26 24 26 22 16 24 25 14 7 5 2 2 6 8 5 8 11 10 11 11 11 12 12 13 12 12 12 10 8 8 9 10 11 12 12 12 12 12 12 12 12 13 14 14 14 13 13 14 14 14 13 12 11 10 10 10 10 13 14 14 15 14 13 13 12 9
20 19 18 18 18 18 17 16 15 15 13 14 17 17 17 18 21 22 25 27 26 27 22 19 25 21 14 13 7 3 7 10 7 3 5 7 8 10 10 11 12 11 13 13 13 14 12 10 10 10 10 10 11 10 10 10 10 9 10 10 11 13 13 12 12 13 13 13 13 12 11 11 11 11 11 12 13 14 15 15 14 12 11 9 7
20 19 18 18 18 17 16 16 17 15 13 15 17 17 18 19 21 23 25 27 27 28 23 21 25 18 12 13 5 5 16 17 7 4 4 3 6 10 10 11 11 11 13 16 16 16 14 12 11 11 10 10 10 9 10 9 9 8 8 9 11 12 12 13 12 13 12 12 12 11 11 11 11 11 11 12 13 14 15 14 13 11 10 9 8
20 20 19 18 17 15 15 16 17 16 16 18 18 17 18 19 22 24 25 27 27 29 27 24 26 19 13 13 7 8 20 19 13 11 6 2 4 7 8 11 12 11 15 18 18 17 15 13 11 10 10 9 9 9 9 9 8 8 8 9 11 12 13 14 13 13 13 12 12 11 11 11 11 11 12 12 13 13 13 13 12 11 10 9 8
20 20 19 18 16 15 15 17 17 18 19 19 18 17 18 20 24 25 25 27 27 28 28 27 27 22 16 14 9 13 18 15 15 15 8 5 4 4 7 10 10 12 18 20 19 17 15 13 11 10 9 8 9 9 9 9 9 9 9 10 11 12 12 13 13 13 12 12 12 11 11 11 11 11 11 12 12 12 12 12 11 11 10 10 9
21 20 19 18 16 15 16 17 18 18 20 20 18 17 17 19 23 26 26 25 25 27 27 27 27 22 18 16 14 17 15 10 13 15 9 6 4 4 9 11 10 13 19 22 20 17 14 13 11 9 8 9 10 9 9 9 10 9 9 9 10 10 10 11 11 11 11 11 12 12 12 12 12 11 11 11 11 11 11 11 11 10 10 9 9
22 22 20 18 17 16 17 17 18 19 20 20 19 17 17 19 21 24 25 24 23 24 26 27 26 21 18 17 17 21 19 13 16 18 12 8 6 5 9 14 15 16 20 21 21 19 14 12 11 9 9 9 9 9 10 11 10 10 9 8 8 9 9 9 10 10 11 11 12 12 12 12 12 11 11 11 11 11 11 11 10 10 10 10 10
23 22 21 19 18 17 17 18 19 21 21 19 18 17 17 19 21 22 23 24 23 22 25 27 25 21 19 18 19 23 23 20 22 22 18 16 15 9 9 15 14 13 19 20 19 20 16 12 11 10 10 9 9 10 11 11 11 9 9 8 8 8 8 9 10 10 10 11 12 12 12 11 11 11 11 11 11 11 10 10 10 10 10 9 9
22 22 21 19 18 17 17 19 20 21 20 18 17 17 19 19 20 21 21 22 24 23 24 27 25 21 19 19 19 22 20 19 23 24 20 21 21 13 11 15 12 12 17 17 17 18 17 15 13 11 10 9 8 10 12 12 11 10 9 9 8 8 9 9 10 10 11 11 11 12 11 11 11 11 11 11 11 10 10 10 10 9 9 8 8
23 23 20 18 18 18 17 18 19 19 18 17 16 18 19 18 18 19 19 20 23 23 22 25 26 22 19 19 19 19 18 18 22 24 22 23 23 18 14 11 12 14 13 13 18 18 15 17 17 14 12 10 8 10 13 12 12 11 10 10 10 9 9 10 10 10 11 11 11 12 12 12 12 11 11 11 11 10 10 10 9 9 8 8 8
24 22 20 18 19 18 17 17 17 17 17 17 17 18 18 16 17 18 18 19 21 22 22 23 25 23 20 19 19 19 17 17 22 23 23 25 25 25 21 11 7 8 8 11 17 17 17 19 18 17 15 12 9 11 13 13 12 12 11 11 11 11 10 10 11 11 11 11 11 12 12 12 11 11 11 10 10 10 9 9 8 8 8 8 8
23 21 19 20 20 19 18 17 16 16 16 17 18 18 18 17 17 17 17 18 18 20 21 21 23 24 22 18 18 19 18 17 22 23 22 24 26 27 27 19 10 4 4 7 8 10 18 20 18 18 16 12 11 13 13 13 14 14 13 13 12 12 12 12 12 12 12 12 12 12 11 11 10 9 9 8 8 7 7 6 6 6 6 6 7
21 19 19 20 20 18 18 17 16 15 15 17 17 17 17 18 18 19 18 17 18 19 20 20 21 23 23 20 18 20 19 18 21 22 21 23 25 26 26 25 20 9 3 5 4 7 16 19 18 19 17 13 13 15 14 13 14 15 14 14 13 13 13 13 13 13 12 12 12 11 10 9 9 8 7 6 5 5 4 4 3 3 4 4 4
21 19 19 20 19 17 16 16 15 14 14 15 16 17 17 18 19 20 19 18 17 18 18 20 21 21 22 21 19 19 20 20 21 21 22 22 22 23 24 25 26 20 11 6 4 11 20 20 17 19 18 16 16 16 15 14 15 15 15 15 14 14 14 14 13 13 12 12 11 10 9 8 7 6 5 5 4 3 2 1 1 0 1 1 2
21 21 21 21 21 19 17 16 15 15 15 15 17 17 18 19 19 19 19 18 17 17 17 19 22 22 21 21 20 18 18 20 21 20 22 22 20 20 22 24 26 23 21 14 5 11 24 23 19 19 18 18 18 17 16 15 15 15 15 15 15 15 15 14 14 13 12 12 11 10 9 8 7 7 6 5 5 4 4 3 4 3 3 2 2
23 23 23 23 23 23 20 18 17 16 15 17 17 16 17 19 18 18 19 18 17 17 17 19 22 23 22 21 20 17 17 18 20 20 21 22 20 18 20 24 24 19 19 19 10 11 23 25 22 21 18 18 19 18 18 17 17 17 16 16 16 16 16 15 15 14 13 12 11 11 10 9 9 8 8 8 8 7 7 6 7 6 6 5 5
25 26 25 24 24 24 23 21 19 17 15 16 16 15 17 19 18 19 19 18 18 17 17 20 22 22 22 21 20 18 17 17 19 19 20 20 19 19 19 20 20 17 17 18 12 10 17 21 21 21 20 20 20 19 19 19 19 19 17 17 18 18 18 17 17 16 15 14 14 13 12 12 12 12 11 11 11 10 10 9 9 9 9 9 8
26 25 23 24 25 24 23 22 19 17 15 14 14 14 16 18 19 19 18 18 19 18 17 20 21 21 21 21 20 18 17 17 18 18 19 18 17 19 20 17 17 18 17 18 16 15 16 19 20 21 22 22 21 19 21 21 20 20 19 19 19 20 19 19 18 18 17 17 16 15 15 14 14 15 15 14 14 14 13 12 12 12 11 11 11
25 24 22 23 26 24 23 22 20 18 16 14 13 13 13 15 17 19 19 19 19 18 19 20 21 21 20 20 20 19 18 18 18 17 17 17 16 19 21 17 16 17 16 18 20 21 21 19 20 22 24 24 22 20 21 22 21 21 21 20 20 21 22 22 21 20 19 20 19 19 18 18 18 18 18 17 17 17 16 15 15 15 15 14 14
24 24 22 23 24 23 23 22 20 18 16 15 14 12 11 12 13 16 17 18 18 18 19 19 20 21 20 21 21 20 19 19 18 17 16 16 16 18 19 16 16 16 14 16 22 25 24 22 22 24 25 25 23 20 21 23 23 23 22 21 22 23 23 23 23 22 22 22 23 22 22 22 21 21 21 20 20 20 19 18 17 17 17 17 17
24 23 22 22 22 22 22 22 20 17 15 15 15 14 12 11 12 13 15 16 17 18 18 18 19 20 20 21 21 21 20 18 17 17 16 16 15 16 17 16 16 15 12 13 22 27 26 25 25 24 24 25 24 22 22 23 25 26 24 23 23 23 24 24 25 24 24 25 26 26 26 26 26 26 25 25 24 24 23 22 21 20 20 20 20
25 23 21 21 21 22 22 22 21 18 16 15 14 14 14 13 13 13 13 14 16 17 18 17 17 18 19 19 21 21 19 17 18 17 16 16 14 13 15 15 15 13 11 12 21 26 27 27 26 23 24 26 25 24 24 24 26 28 28 26 26 26 26 27 27 26 26 27 28 28 29 29 29 29 29 29 29 28 28 26 25 24 23 23 23
25 22 21 23 22 22 23 23 22 20 18 16 14 14 14 14 15 14 14 14 14 15 17 17 17 17 18 19 20 20 18 17 17 16 15 15 14 12 13 13 13 12 11 14 21 25 26 26 24 23 25 27 26 24 23 25 26 27 27 27 28 29 29 29 30 29 27 28 28 29 30 31 31 32 32 32 32 32 32 31 30 28 27 27 26
25 24 25 26 24 23 23 23 22 20 19 17 15 16 16 15 16 15 15 15 15 15 16 16 16 15 16 19 19 19 18 17 15 14 12 11 12 12 11 10 11 11 12 19 24 24 24 24 23 23 24 26 26 22 19 22 25 25 27 29 29 30 30 30 31 30 29 30 29 29 30 31 32 33 34 35 35 35 35 34 34 33 31 30 29
26 26 27 26 23 23 23 22 20 19 19 17 15 14 15 15 14 15 15 16 16 16 16 16 15 13 15 19 19 17 18 16 14 13 10 6 8 11 10 9 10 10 14 21 24 23 23 23 23 22 20 22 26 23 19 22 26 27 29 29 30 32 31 31 32 32 32 32 32 32 32 32 33 34 35 36 36 36 37 37 37 36 34 33 32
26 27 27 26 24 24 24 22 21 21 21 18 16 15 15 14 12 12 13 16 18 18 17 16 15 14 15 17 18 17 17 16 14 13 10 7 7 9 8 5 6 11 18 22 22 21 21 20 20 21 20 22 26 26 24 25 27 28 27 27 30 32 28 26 30 33 33 33 34 35 34 33 35 36 37 37 37 37 38 39 39 38 36 34 33
27 28 27 27 28 27 25 23 23 22 20 18 17 16 16 17 15 14 12 14 17 19 17 16 16 16 15 14 14 14 15 16 16 14 12 9 9 9 8 8 7 10 15 17 17 17 16 14 13 16 18 18 17 18 19 19 19 21 23 23 27 29 24 20 22 27 30 30 31 34 34 33 35 38 37 36 35 35 37 37 37 37 36 34 34
30 31 29 29 29 28 26 25 23 21 20 18 17 16 15 15 15 16 15 14 15 17 18 18 18 17 15 13 13 13 13 14 15 16 15 13 11 10 10 11 12 11 11 11 11 11 11 10 9 9 9 8 5 6 7 6 6 8 11 13 17 21 22 21 20 23 24 22 22 29 33 31 32 35 35 32 31 32 33 33 33 34 35 35 35
32 33 32 31 30 28 27 26 23 22 20 18 17 15 14 14 15 15 14 14 16 18 20 21 20 18 16 15 15 16 16 16 16 15 15 15 14 13 12 12 12 11 10 9 9 9 8 8 9 9 6 4 4 3 2 2 3 4 5 7 9 11 14 16 17 18 17 15 15 21 27 27 28 31 32 30 29 30 31 31 31 33 34 35 36
33 34 32 31 29 27 26 25 23 22 20 18 17 15 14 14 15 16 15 15 17 20 21 21 20 19 18 18 18 17 17 17 16 16 16 15 15 15 14 13 12 11 11 9 9 8 7 6 7 7 5 3 3 2 1 2 3 4 5 7 8 9 10 12 13 15 15 15 16 16 20 22 24 27 30 29 28 30 31 30 31 32 33 35 37
32 33 31 29 28 25 23 23 22 20 18 17 16 15 16 17 17 18 18 18 20 22 22 22 22 21 20 20 20 19 18 17 16 15 15 15 15 15 14 13 11 10 10 9 8 7 6 6 6 6 4 3 2 2 3 4 5 7 9 10 12 14 15 16 18 19 18 18 17 16 19 22 22 25 30 29 28 31 31 30 32 32 33 36 37
30 31 29 27 26 24 22 21 20 18 16 16 16 17 18 20 21 21 21 21 23 24 24 23 22 21 20 19 20 19 18 17 15 14 13 13 13 14 13 12 10 9 8 7 6 5 4 4 4 4 3 3 4 5 7 8 9 11 12 14 15 17 18 20 21 22 21 18 17 16 20 23 21 24 29 29 29 31 31 31 32 32 34 36 34
28 29 28 26 25 23 22 20 19 17 15 14 16 18 20 21 23 24 25 25 27 27 25 24 22 20 19 17 17 17 16 15 13 11 10 9 10 11 10 9 8 7 6 5 4 2 2 2 3 4 5 6 7 8 9 11 12 14 15 15 16 17 18 17 17 21 23 22 21 20 22 23 22 24 28 29 29 30 30 31 30 30 31 31 30
27 27 28 27 25 23 22 21 20 18 16 14 15 19 21 22 24 26 27 28 28 28 26 24 22 21 19 17 15 14 14 12 10 8 7 6 6 6 6 5 4 3 2 2 2 2 3 4 4 5 6 7 8 9 9 10 11 12 12 12 12 14 16 14 15 20 23 20 17 17 20 24 23 23 25 26 26 27 28 27 27 27 28 29 30
27 28 29 29 27 25 24 23 22 20 19 16 16 20 23 24 24 26 28 28 28 27 25 24 22 20 18 16 14 12 11 10 8 6 5 4 3 4 3 3 4 5 5 5 5 6 6 6 7 7 7 8 8 8 7 7 7 7 7 7 7 9 12 13 14 16 14 11 11 13 18 23 23 23 22 19 16 18 20 19 20 23 24 25 26
Wind_Direction
188 187 184 181 179 172 164 162 163 167 172 175 175 171 168 162 156 157 160 158 156 170 190 161 115 134 162 161 148 143 140 137 131 127 128 124 120 117 117 122 125 123 121 121 119 116 112 106 99 92 87 84 87 93 99 101 101 102 100 97 94 93 93 94 94 96 96 95 94 95 94 89 84 84 84 81 82 81 77 73 72 71 71 70 69
186 185 181 178 174 166 161 157 156 161 166 169 173 176 176 168 160 159 166 179 192 190 178 161 140 142 161 168 162 151 144 140 136 134 134 129 125 126 127 129 128 122 120 123 124 122 118 110 101 96 90 85 84 84 88 93 96 99 97 94 91 87 87 89 94 94 93 93 91 93 94 94 92 88 86 83 81 83 81 75 72 71 71 71 72
186 184 179 175 172 166 163 163 161 160 158 160 166 174 179 176 169 170 184 209 212 193 176 175 170 155 160 174 177 167 154 146 143 143 143 137 132 131 130 132 132 126 122 124 128 126 125 122 113 104 95 89 89 89 88 91 95 98 98 97 92 86 82 83 90 95 96 93 90 92 94 96 96 92 89 85 82 83 83 80 77 75 73 71 73
187 185 180 176 174 169 167 168 168 168 168 166 163 167 173 178 183 190 208 220 210 188 180 189 185 165 160 174 181 173 162 151 147 149 150 145 138 131 127 130 133 133 131 132 137 139 141 135 120 114 112 106 108 102 95 97 100 102 103 101 95 88 83 81 84 90 96 95 92 91 92 93 94 95 94 90 87 85 83 82 81 79 77 75 73
190 187 183 178 176 172 174 177 177 180 182 180 176 176 180 186 193 199 207 208 196 181 180 184 184 173 163 174 182 175 163 154 151 153 155 149 137 130 130 133 133 135 139 144 151 155 155 143 111 103 109 119 134 128 113 108 107 109 109 102 97 93 87 84 84 86 93 95 95 93 91 91 89 90 90 90 91 88 85 83 82 81 80 78 75
193 191 186 180 178 178 181 181 176 174 174 176 174 174 180 179 176 176 182 189 184 177 178 174 176 177 168 174 182 176 165 155 153 155 156 148 137 133 136 138 135 137 142 147 155 158 152 134 108 102 101 104 140 148 147 138 125 122 120 106 103 106 98 91 88 88 92 93 92 92 90 89 88 86 84 84 86 86 86 87 86 83 80 77 77
194 191 188 182 180 181 179 173 167 164 170 177 172 165 170 169 167 168 167 174 176 172 174 168 167 173 170 173 179 176 166 154 154 157 155 148 140 141 143 140 136 140 144 145 150 149 139 126 115 117 116 115 131 148 164 164 153 143 139 125 115 118 111 99 97 97 97 96 94 91 89 89 88 87 84 81 79 78 79 83 86 85 82 80 78
194 193 189 184 182 179 171 165 163 168 179 185 178 168 169 164 166 175 168 166 171 169 171 169 166 170 171 172 174 173 165 158 157 155 152 150 147 149 151 147 143 145 145 144 145 141 132 127 128 134 130 123 115 121 158 167 167 163 158 148 134 132 125 112 109 107 104 102 99 93 92 95 94 91 88 84 81 77 72 70 75 82 84 85 82
196 194 189 184 181 175 165 162 168 176 181 181 177 175 174 160 157 173 175 168 168 165 164 168 168 169 170 170 170 170 168 165 163 159 155 154 155 156 158 162 161 154 148 146 145 140 133 130 135 143 140 130 117 114 136 156 167 170 168 166 159 150 144 133 123 120 116 109 105 99 94 94 96 97 93 88 85 81 74 66 61 68 78 83 84
196 193 189 183 178 176 172 170 175 182 178 170 173 180 177 160 153 165 179 174 172 167 162 163 163 164 165 163 165 169 171 168 167 168 165 161 159 159 164 171 170 159 152 149 145 136 126 124 134 152 161 155 135 124 128 138 153 163 165 170 173 167 161 156 143 137 133 121 111 102 90 81 80 86 90 90 86 80 79 75 65 64 71 76 80
196 190 185 179 177 182 182 179 183 188 182 173 176 184 179 168 163 168 174 176 177 170 163 161 158 160 160 155 159 167 171 172 177 179 176 172 168 168 173 172 167 160 154 148 139 129 117 115 128 144 155 158 147 135 129 130 135 139 141 150 164 167 171 177 168 156 152 143 126 108 94 78 63 51 71 86 82 79 84 85 79 71 68 68 69
198 191 186 183 179 184 184 183 188 191 191 187 187 196 189 177 172 168 164 163 168 166 163 160 152 150 152 151 155 162 165 171 182 185 183 182 177 176 179 171 164 160 154 147 137 125 115 116 126 130 132 136 136 132 126 119 117 117 120 124 130 139 155 171 174 168 163 156 142 126 111 89 65 47 85 98 87 91 104 99 92 82 69 64 64
198 194 190 190 183 184 189 192 194 193 194 188 185 197 191 174 168 167 164 160 161 165 163 155 143 139 142 147 151 152 157 169 180 184 182 182 181 179 178 172 169 165 158 153 144 129 121 118 117 115 115 121 123 121 118 112 109 108 106 105 105 111 122 137 148 151 156 158 152 142 122 94 85 90 110 119 108 108 122 126 117 106 87 72 70
191 190 186 187 188 192 197 196 195 191 186 180 183 192 185 174 170 170 169 165 165 167 164 156 145 145 145 134 127 131 148 168 179 181 179 179 180 176 173 174 174 171 167 159 149 137 127 123 114 110 115 123 123 118 116 111 107 105 101 98 98 101 107 115 125 128 132 140 142 133 118 110 107 107 113 115 110 108 113 125 128 122 112 92 79
185 189 188 190 196 198 195 193 193 188 182 180 187 195 188 178 178 178 171 165 165 168 168 163 154 150 144 136 124 118 139 165 168 168 173 176 180 177 175 177 176 176 176 162 153 152 145 140 123 118 123 128 128 122 118 114 108 104 100 98 96 96 100 106 113 116 117 121 125 126 121 118 118 115 114 111 105 100 98 106 120 124 117 104 93
187 192 194 196 201 202 198 195 194 189 186 186 192 199 196 184 181 182 175 166 165 170 172 171 165 156 141 108 114 130 163 172 156 160 173 173 177 183 180 178 174 173 174 162 157 164 168 161 131 128 135 136 135 130 124 119 114 111 106 104 103 100 100 103 107 111 116 120 123 125 122 119 117 112 109 106 101 96 92 96 108 117 116 110 106
194 197 198 202 206 207 204 200 199 194 191 194 198 202 203 192 184 184 182 176 174 176 179 183 178 168 156 146 132 151 208 160 150 158 178 175 175 184 184 183 180 172 168 166 166 171 176 168 146 142 145 141 138 133 127 124 118 119 118 116 114 111 108 108 111 116 120 123 124 123 123 120 116 111 106 101 100 103 101 99 106 116 119 116 110
200 202 202 206 208 208 207 204 202 199 197 203 205 202 199 195 190 189 189 185 179 178 182 186 183 178 171 170 165 193 174 152 149 154 170 180 184 187 189 188 186 175 169 171 173 176 176 168 155 152 148 142 141 136 129 127 124 125 127 128 128 125 120 115 117 122 122 124 124 125 124 121 118 111 105 100 99 106 110 109 113 120 122 115 102
201 202 204 205 206 209 210 209 208 206 206 206 209 208 200 196 196 194 192 190 183 180 183 184 184 191 197 187 197 206 173 163 161 153 144 175 191 191 192 185 182 179 175 173 172 173 171 166 161 156 150 145 145 143 138 135 134 135 134 138 142 137 129 123 122 125 125 127 127 127 125 122 120 114 109 105 100 103 111 117 121 122 120 114 105
197 199 201 201 205 213 215 212 211 212 214 211 211 211 203 198 197 196 195 195 192 186 185 184 186 195 200 197 216 195 173 169 164 152 133 119 169 185 186 179 177 177 176 174 172 170 167 167 168 162 156 154 155 154 150 147 142 140 142 146 145 140 135 132 131 130 128 130 129 128 128 125 124 120 114 111 107 107 111 117 121 121 118 115 109
196 197 198 200 207 217 217 211 210 214 216 213 209 207 204 200 196 195 196 199 199 194 190 187 188 191 191 192 192 169 165 167 162 152 138 137 155 173 171 170 173 177 178 175 171 170 166 167 172 170 166 163 164 164 157 152 146 143 147 150 147 142 140 139 136 135 134 134 133 132 131 128 126 123 118 114 112 112 112 112 111 110 108 105 100
195 197 198 201 208 216 216 210 208 213 216 214 208 205 204 201 198 197 196 198 200 199 197 193 190 191 190 187 174 160 156 154 159 157 145 137 139 156 164 163 162 173 179 175 171 170 167 170 172 169 170 168 169 172 163 153 149 147 150 153 150 145 144 143 140 139 139 137 137 135 134 132 129 124 119 116 114 112 109 107 105 103 102 100 97
194 197 201 204 209 215 217 212 208 210 215 215 209 205 202 198 199 198 196 198 199 201 200 195 189 189 192 192 184 173 167 167 168 164 155 142 132 142 161 161 157 167 176 175 173 171 168 174 173 163 163 167 173 178 168 157 153 153 157 159 158 155 152 152 148 147 145 141 138 137 134 132 127 122 118 116 114 111 109 107 106 104 101 98 93
196 199 202 207 212 216 217 215 211 210 212 213 209 205 201 195 196 196 197 200 201 202 202 196 190 189 189 193 193 184 178 177 175 171 168 159 149 142 150 153 151 165 174 171 170 172 172 180 181 171 165 163 173 180 171 164 161 160 163 167 167 165 161 159 155 150 145 140 136 133 129 124 120 118 117 116 114 113 111 106 102 98 95 90 82
197 198 199 205 210 212 212 209 209 210 210 211 207 202 198 195 195 193 195 202 203 202 204 199 193 190 188 189 190 185 183 183 179 177 173 160 150 143 147 150 144 154 167 165 163 168 176 186 189 182 174 162 166 178 175 170 168 166 166 167 168 167 164 160 155 149 143 140 137 132 128 125 123 122 119 118 115 110 106 100 96 93 91 88 81
197 195 193 197 202 206 206 206 208 209 208 209 204 198 197 196 195 193 195 201 201 200 203 202 197 193 190 189 187 185 186 187 183 180 176 166 156 147 145 145 143 149 155 158 161 165 176 190 193 189 181 172 170 179 182 178 173 171 170 167 166 164 163 159 153 149 145 143 140 135 133 130 127 124 119 115 111 105 101 97 94 91 88 84 80
198 196 193 194 199 201 205 208 210 207 208 209 204 198 198 198 197 199 200 200 200 200 202 202 201 199 195 192 192 191 189 188 188 186 183 177 168 158 152 142 143 154 143 146 161 172 180 187 194 194 187 181 184 185 185 185 178 174 173 170 167 165 163 159 154 152 150 147 143 137 134 132 128 124 120 116 111 106 102 100 96 91 85 79 73
200 199 196 195 196 199 205 210 208 206 206 205 200 196 197 200 201 202 203 200 199 202 202 203 205 204 200 198 198 198 195 191 191 191 190 187 180 170 163 156 151 152 142 148 153 172 183 184 189 197 195 189 191 189 187 188 183 178 176 175 172 167 164 162 159 158 156 151 147 143 139 137 134 131 128 123 118 113 108 104 98 91 84 78 71
200 195 189 188 191 196 202 203 202 202 200 198 197 196 199 204 202 200 202 201 201 203 204 204 205 204 203 202 204 203 199 194 193 193 194 193 188 182 178 172 166 156 149 177 165 165 183 187 186 192 197 197 195 189 189 192 187 182 180 180 178 173 169 169 168 166 163 159 155 152 151 149 149 147 145 141 136 130 122 113 105 92 82 73 65
192 185 180 182 186 190 191 192 197 200 198 197 197 196 201 205 202 200 201 201 201 203 204 204 203 202 202 202 204 206 203 198 195 195 194 193 189 189 190 185 177 173 168 171 178 177 183 190 191 191 193 195 194 191 192 195 192 188 186 185 184 179 176 175 175 174 171 169 168 167 167 168 170 172 173 175 173 169 169 176 187 130 66 36 31
185 181 178 179 182 183 182 183 190 197 198 197 196 196 201 203 200 202 205 203 203 202 201 202 201 200 199 200 202 204 204 202 198 197 197 193 187 188 196 193 186 182 176 166 161 189 190 193 197 197 195 191 190 192 194 195 196 193 190 190 189 186 185 183 183 184 183 183 185 186 189 192 198 204 209 216 222 226 237 249 257 264 272 287 309
183 182 179 179 179 180 181 181 185 195 199 196 196 198 199 199 199 200 203 203 203 203 200 199 199 198 198 199 202 201 201 201 199 199 201 200 194 192 197 197 193 192 184 174 168 192 196 198 200 200 198 192 190 193 195 195 197 198 195 194 194 193 193 192 192 194 195 198 201 205 210 215 220 227 233 239 244 247 253 259 262 266 270 276 283
182 181 182 182 181 178 178 178 180 188 193 190 194 197 196 198 198 198 201 202 203 204 201 198 198 199 199 200 201 200 200 202 202 202 203 204 203 200 198 198 200 203 198 188 180 182 193 200 203 202 199 194 192 195 197 196 197 199 198 198 201 202 202 202 203 205 207 210 214 218 223 227 231 234 237 241 246 249 253 258 261 264 269 275 279
178 179 181 181 180 178 176 176 177 179 182 182 186 189 193 197 197 198 202 202 203 204 202 199 199 200 202 203 202 201 202 203 202 204 205 205 206 204 202 200 199 202 206 203 192 182 188 200 204 203 199 196 196 197 200 201 200 200 201 203 206 209 211 212 213 215 217 219 222 224 228 232 234 236 238 241 244 248 252 255 259 262 267 272 274
179 179 176 175 177 178 175 174 176 177 178 178 178 180 187 194 196 198 201 202 204 205 201 199 200 202 204 205 204 203 204 206 205 207 211 212 210 208 206 204 203 205 212 211 200 191 189 195 204 205 198 196 200 202 203 205 205 204 206 209 212 213 215 218 221 224 226 227 229 231 234 237 239 240 242 245 247 250 252 255 258 262 266 268 270
177 176 174 174 176 177 175 175 176 178 181 182 182 182 185 192 196 195 198 201 203 203 201 201 203 204 204 204 204 203 204 207 209 210 217 220 216 211 209 211 213 217 224 217 207 200 192 190 202 209 202 199 203 207 206 207 209 211 212 215 217 218 219 222 226 229 231 234 237 239 242 244 246 247 248 249 251 252 253 255 258 260 263 265 267
171 174 176 179 181 179 177 176 176 179 184 187 189 190 189 193 195 193 195 195 194 196 199 203 203 200 199 199 200 201 204 208 210 214 219 220 217 214 216 219 218 224 241 228 207 201 196 195 201 205 204 202 204 208 210 210 210 213 216 219 222 224 226 227 230 233 235 238 241 244 246 249 250 251 251 252 253 253 254 255 257 260 262 263 264
171 175 179 184 187 185 182 180 177 179 185 189 192 193 192 191 190 190 192 192 191 193 196 200 200 197 195 195 197 200 203 206 209 214 218 217 215 217 219 221 219 228 252 237 206 198 200 202 201 200 202 205 207 210 213 213 212 213 216 220 225 228 230 232 235 238 240 242 244 246 249 251 253 254 255 255 255 256 256 256 257 259 261 263 264
173 176 176 177 180 182 182 181 178 179 184 189 195 197 194 192 190 189 190 191 191 192 193 195 196 198 198 195 196 201 204 207 209 210 213 216 219 223 221 220 225 238 251 232 208 199 199 200 198 200 202 205 209 214 216 216 217 218 218 220 225 230 232 236 240 241 243 245 248 250 252 253 256 258 259 260 259 258 258 257 258 258 259 262 264
177 175 170 168 170 173 174 176 178 181 182 185 192 201 203 201 199 198 196 194 193 192 193 196 198 202 204 200 200 204 205 208 207 199 199 211 220 222 219 220 233 244 237 219 205 199 200 198 198 202 204 204 209 217 220 216 215 222 225 225 229 235 237 239 244 245 246 247 249 252 253 255 257 258 259 260 260 259 258 258 257 258 257 259 261
178 175 171 171 171 172 172 173 174 175 172 169 171 185 197 200 202 204 201 196 195 196 198 202 205 205 204 202 203 205 204 203 197 185 182 190 204 206 206 221 238 231 216 211 203 195 195 196 198 201 202 204 208 211 213 214 217 227 231 228 233 241 244 244 248 251 251 250 252 253 254 256 257 259 259 260 260 260 259 258 257 257 257 257 258
177 173 172 174 175 174 174 173 170 167 164 159 153 155 161 164 169 181 190 193 196 198 197 196 196 196 197 200 200 199 198 193 181 174 172 160 158 171 178 202 227 207 202 205 203 194 189 189 195 199 200 207 213 213 214 221 227 232 233 229 233 242 247 248 254 258 256 254 253 254 257 258 258 259 260 260 262 262 261 260 259 257 257 257 258
173 170 171 173 173 174 175 173 169 165 162 159 157 154 149 145 144 147 158 178 190 195 191 182 181 186 190 191 187 184 186 180 169 166 167 158 145 139 131 117 126 168 184 188 188 187 183 178 183 193 198 205 214 215 217 225 232 236 237 236 237 242 244 246 253 260 262 261 256 254 259 263 261 260 260 261 261 261 261 261 260 259 258 258 259
168 167 168 168 167 168 170 168 165 162 159 155 157 163 163 157 149 143 142 150 164 175 178 176 178 183 183 177 169 164 161 158 155 154 152 148 141 135 127 121 120 127 140 147 152 157 159 152 147 156 171 177 172 177 194 210 230 240 242 243 243 245 246 246 250 259 267 272 264 256 258 262 261 259 260 261 261 262 261 261 260 259 259 259 260
162 162 161 159 159 160 162 162 158 155 153 150 149 157 168 171 166 158 151 150 154 162 170 175 176 175 172 166 158 150 146 145 144 142 140 139 140 138 134 131 130 128 130 135 136 136 140 143 136 128 129 135 135 138 169 237 263 259 244 241 242 242 243 245 252 263 270 279 276 260 256 260 261 259 260 262 263 264 265 265 264 261 259 260 261
156 155 153 153 153 153 155 156 154 152 151 148 144 145 155 165 169 165 158 156 159 162 166 169 167 161 158 155 149 141 140 140 138 137 137 138 141 141 137 134 133 133 134 134 131 129 128 131 129 123 118 112 108 113 262 285 295 296 287 279 276 270 265 265 272 279 281 285 286 269 257 263 267 264 265 268 269 268 268 269 269 267 266 265 263
151 149 148 148 149 149 150 152 152 151 150 149 145 141 146 154 159 157 152 152 155 156 156 156 155 151 148 146 142 137 134 131 129 131 133 135 137 136 134 133 130 131 132 124 115 107 96 92 93 93 88 65 39 13 330 315 315 314 310 307 305 303 301 299 295 293 292 293 293 276 261 269 274 269 270 276 276 273 271 268 267 267 268 268 267
143 142 141 141 142 141 143 147 149 147 147 150 150 146 146 150 150 147 146 146 146 145 142 141 141 140 139 139 138 136 133 129 126 128 129 131 133 128 126 126 123 121 120 108 95 81 64 52 40 28 13 350 334 325 321 315 311 312 310 306 306 309 315 315 308 304 303 303 304 290 273 274 277 272 275 281 279 274 273 270 267 265 266 268 271
131 132 131 129 130 130 131 133 137 137 136 143 151 151 150 150 148 144 142 140 138 136 133 131 132 130 129 131 134 135 134 128 124 127 129 132 131 122 118 120 118 117 113 101 89 65 25 355 343 336 327 322 314 309 312 313 314 314 313 313 314 318 323 323 312 307 306 305 307 302 287 281 283 280 281 283 280 276 275 273 270 267 268 271 271
120 120 121 118 116 116 117 116 117 119 120 129 145 152 152 153 151 146 143 139 134 132 129 126 126 126 123 123 126 130 129 122 120 126 130 134 132 117 108 107 99 78 51 25 327 306 305 303 306 311 315 318 318 315 316 319 321 319 318 323 322 320 326 325 311 309 311 311 317 312 292 287 291 290 287 285 283 279 277 276 274 270 271 273 270
112 111 111 110 105 101 102 103 103 103 102 109 130 145 150 153 153 150 147 143 135 131 129 126 123 122 121 119 117 117 115 110 108 111 110 112 107 83 56 42 45 36 19 357 337 326 318 316 319 319 321 327 329 327 327 330 337 338 338 345 341 334 339 337 325 320 316 316 334 325 298 294 299 298 293 290 288 284 283 283 281 278 276 273 269